Tracking 21472 objects as of 22-Sep-2020
HD Live streaming from Space Station
objects crossing your sky now

CLUSTER II-FM6

Track CLUSTER II-FM6 now!
CLUSTER II-FM6 is classified as:


NORAD ID: 26410
Int'l Code: 2000-041A
Perigee: 33,591.7 km
Apogee: 99,200.5 km
Inclination: 132.1 °
Period: 3,255.8 minutes
Semi major axis: 72767 km
RCS: 1.9953 m2 (large)
Launch date: July 16, 2000
Source: European Space Agency (ESA)
Launch site: TYURATAM MISSILE AND SPACE COMPLEX (TTMTR)
aabbcc
Your satellite tracking list
Your tracking list is empty




NASA's NSSDC Master Catalog

Two Line Element Set (TLE):
1 26410U 00041A   20266.61130610 -.00000159 +00000-0 +00000-0 0  9998
2 26410 132.0774 342.3754 4508137 185.7657 000.5385 00.44228296011026
Source of the keplerian elements: AFSPC